Theta_e
300 297 299 301 307 312 315 320 322 326 327 324 324 326 326 327 328 332 332 332 331 328 325 322 318 314 309 306 302 297 293 292 291 289 288 288 288 286 287 287 288 288 288
296 298 298 297 300 309 314 318 321 325 326 328 328 328 327 319 325 324 327 331 330 329 327 323 318 313 310 306 302 299 294 292 291 289 288 284 285 286 285 286 286 284 285
294 295 296 296 297 301 309 315 321 323 325 327 321 312 311 310 313 313 322 328 329 328 326 324 319 314 312 306 303 300 297 293 291 291 291 283 284 281 285 285 284 285 283
294 295 296 295 295 299 304 313 318 321 323 324 322 322 321 319 320 324 320 314 320 327 326 324 319 316 313 310 305 303 300 297 291 291 292 290 287 284 280 284 283 284 284
292 295 297 298 297 297 299 305 311 317 320 321 322 320 321 321 311 307 310 309 312 316 321 321 318 316 314 312 308 305 301 299 296 294 294 291 287 287 284 281 280 283 284
295 295 296 298 298 298 297 301 306 309 312 317 317 317 318 312 303 302 305 305 306 314 312 313 317 316 314 314 310 307 303 301 300 296 298 293 290 285 284 282 282 283 283
294 295 296 296 296 296 298 298 301 303 305 309 311 310 313 308 306 305 307 302 303 304 311 310 311 313 314 314 312 308 304 302 300 298 298 297 297 289 289 285 282 282 282
296 296 296 296 296 297 297 299 299 299 301 302 304 305 307 308 308 305 305 305 306 306 304 306 310 311 312 312 312 308 305 304 301 301 298 298 298 292 289 286 283 280 280
296 296 297 297 297 297 298 298 299 299 299 300 301 302 303 304 305 302 304 305 304 302 300 303 304 307 309 310 310 307 304 303 301 300 298 298 296 291 290 288 287 286 280
297 297 297 297 298 298 298 297 298 298 299 299 299 300 301 302 302 301 302 303 302 300 299 301 303 304 306 306 307 306 304 302 301 300 298 297 297 292 291 289 287 287 286
295 297 297 297 296 296 297 297 297 298 298 298 298 298 299 300 301 302 303 303 301 299 299 298 300 301 302 303 303 304 303 300 300 298 297 295 296 292 291 290 289 285 284
295 295 295 295 295 295 295 296 297 297 298 298 298 298 299 299 299 301 302 299 300 297 298 296 296 297 300 300 300 301 301 298 298 296 296 295 295 292 290 289 286 285 283
295 295 296 297 298 296 295 295 295 296 297 297 297 297 297 297 298 298 298 296 297 294 293 293 294 293 296 297 297 299 299 296 298 297 294 295 292 289 287 286 285 285 283
295 295 296 296 297 297 295 294 294 295 296 296 296 295 296 297 297 296 296 295 294 294 292 292 293 293 292 292 295 295 296 295 295 294 293 293 288 289 285 284 284 283 283
294 294 294 294 294 295 295 296 296 295 294 294 294 295 296 295 294 293 292 291 291 293 291 290 290 290 289 290 289 291 293 292 292 291 290 290 288 288 286 285 283 284 284
294 294 294 294 293 293 293 294 293 292 292 291 290 292 291 290 290 289 289 289 288 288 287 286 288 286 288 291 292 291 289 289 289 287 286 286 284 286 287 288 287 287 283
293 293 293 293 292 292 292 291 290 288 286 286 287 287 286 286 287 288 287 287 287 286 285 285 284 285 285 290 291 291 288 288 288 287 284 283 284 284 285 287 287 287 287
292 293 292 291 291 290 290 288 286 285 285 284 284 284 285 285 285 284 285 285 285 284 284 284 283 284 283 289 290 290 287 285 286 285 284 283 282 284 284 284 283 283 284
292 292 292 291 290 289 288 284 284 285 284 285 284 283 283 284 284 284 283 282 280 278 279 280 281 280 281 288 289 289 286 284 283 283 283 283 282 285 286 283 282 281 282
291 290 290 289 288 288 285 283 283 283 283 284 284 283 282 281 282 283 283 281 277 280 279 279 282 282 282 286 288 288 285 283 281 282 282 283 283 286 287 283 281 280 281
289 289 288 288 288 287 283 282 282 281 283 282 281 281 281 280 279 278 277 275 275 277 280 281 281 282 282 283 287 288 284 282 280 280 280 282 286 287 287 285 282 283 283
286 286 285 285 285 283 280 280 280 281 280 279 279 279 278 280 281 273 273 275 280 280 280 280 279 280 280 283 285 288 287 284 280 280 281 282 286 287 288 285 286 288 284
284 284 281 281 282 278 276 278 279 279 278 276 277 277 276 278 276 276 279 280 280 279 278 278 278 278 279 281 285 287 287 284 281 281 282 284 286 287 288 287 287 284 281
282 278 276 278 279 275 276 275 278 277 273 273 274 274 275 275 274 279 279 280 279 278 278 278 278 278 279 280 282 284 284 283 282 283 283 284 285 286 286 284 285 284 281
279 275 277 278 278 275 273 271 275 278 277 273 273 274 272 271 274 274 274 274 275 278 276 277 278 277 277 279 283 284 282 282 281 280 281 282 282 283 282 282 283 283 282
278 275 274 273 274 271 271 269 268 272 276 277 279 279 273 274 277 278 279 283 283 283 283 283 278 275 281 283 285 286 285 284 284 279 278 279 279 279 280 279 278 279 279
Wind_Speed
14 7 10 12 10 9 11 14 13 15 10 6 9 9 11 8 8 10 14 15 15 15 14 9 10 11 11 12 11 6 9 4 6 6 2 2 1 2 3 3 4 4 4
9 11 9 8 11 17 15 14 14 15 14 11 10 8 7 4 8 6 9 14 16 16 15 13 12 12 10 11 10 12 7 3 9 5 4 3 2 3 4 3 4 6 4
11 9 7 9 8 10 13 15 17 16 15 14 4 4 4 3 2 4 8 10 14 16 17 15 13 13 12 11 14 14 14 8 11 11 6 4 6 3 3 8 6 7 4
7 7 8 7 9 14 10 13 12 13 14 12 11 14 12 12 10 10 6 5 6 11 14 14 13 14 12 13 14 13 15 10 13 5 7 2 4 6 3 3 7 7 9
0 3 6 7 8 6 7 6 5 8 10 13 14 12 13 9 2 3 5 5 5 5 8 12 14 13 11 13 16 16 15 13 10 12 8 3 2 3 3 3 4 5 7
9 9 7 8 7 5 3 3 6 4 5 9 10 13 14 8 4 4 5 5 5 7 6 7 11 12 12 13 14 17 19 16 15 12 10 10 8 7 4 3 4 10 6
8 8 10 10 8 9 6 1 3 4 5 7 8 9 10 9 11 9 8 6 6 5 10 9 7 9 12 13 13 15 16 17 15 16 15 11 11 4 7 4 3 3 3
6 7 6 5 7 8 8 4 3 6 6 7 8 7 7 7 7 7 6 7 8 8 7 10 11 11 10 11 12 11 13 16 15 19 14 10 10 8 7 7 6 3 3
7 7 8 6 4 1 4 4 4 5 5 7 6 7 7 8 8 7 7 7 8 6 8 10 11 12 14 13 14 11 13 14 14 16 14 12 8 6 7 6 5 6 7
10 9 8 8 6 4 3 3 4 5 5 6 5 5 7 7 6 6 10 9 8 8 9 11 12 13 14 14 13 13 12 14 12 12 15 13 9 8 8 8 8 7 7
7 7 7 7 8 8 8 7 6 6 6 6 6 7 7 7 7 9 10 11 8 10 11 11 12 13 13 12 12 14 12 15 15 14 14 16 14 9 10 10 10 9 6
7 6 5 6 6 8 8 8 6 7 7 6 6 7 7 7 8 10 10 7 10 8 10 10 11 12 12 12 13 15 13 14 16 15 15 16 11 13 11 10 13 10 5
10 9 11 13 14 10 8 8 7 8 7 6 6 7 8 7 9 8 6 7 8 8 8 9 11 10 12 12 12 14 14 13 15 14 15 15 13 13 9 10 9 8 5
8 9 10 11 11 12 9 9 8 7 8 6 7 8 9 9 8 7 7 7 8 8 9 10 12 12 12 12 13 12 13 12 13 12 12 13 14 15 13 11 12 10 8
8 8 8 8 8 10 11 11 10 10 8 7 7 10 9 7 6 7 7 7 7 8 8 8 10 9 9 8 10 11 11 11 12 9 10 11 13 14 15 10 12 14 9
6 7 8 9 10 9 9 9 7 8 9 9 9 9 8 7 8 7 7 7 7 7 6 7 9 9 8 13 16 13 10 11 11 10 9 7 9 15 21 21 23 19 15
5 6 7 7 8 9 9 11 11 8 7 8 8 8 8 8 8 8 7 8 8 6 8 7 7 9 8 14 16 19 9 9 10 9 8 7 7 11 12 19 22 21 24
7 8 5 6 6 5 8 9 10 10 8 7 6 6 7 9 8 7 7 7 5 6 6 7 8 8 7 15 16 16 11 8 9 10 11 11 11 13 13 12 11 11 13
8 7 7 6 7 7 7 7 11 10 10 10 7 5 6 9 8 8 7 6 4 3 4 4 6 7 6 13 14 11 7 8 7 8 9 10 11 17 21 13 13 11 7
7 8 9 6 6 7 6 7 10 9 12 10 11 10 7 5 6 6 7 3 3 5 2 4 5 6 6 12 13 13 5 7 6 6 8 14 13 22 22 12 13 12 9
8 8 8 8 10 7 7 9 8 10 9 10 10 8 9 9 6 4 2 2 3 4 3 4 2 4 5 6 14 17 6 6 5 6 6 7 20 22 23 18 12 14 11
8 6 7 9 7 6 4 8 9 8 7 8 9 9 7 6 5 4 5 1 2 0 2 3 4 2 3 7 11 16 14 11 6 5 5 6 17 19 23 17 20 18 14
6 5 5 10 12 5 2 9 8 8 9 7 8 7 8 7 5 4 5 3 1 2 2 3 1 3 2 3 9 12 14 13 5 4 6 11 17 17 17 17 20 11 6
6 3 4 8 13 4 5 6 8 7 6 7 6 5 5 6 4 4 2 2 2 3 2 2 1 1 2 1 0 1 7 9 5 10 8 10 12 12 9 9 9 5 6
5 3 7 9 11 6 6 5 7 9 10 6 5 4 3 3 4 4 3 2 3 3 2 2 3 3 2 2 3 5 5 5 6 5 3 4 5 8 6 5 5 5 5
6 7 7 8 10 6 7 6 5 7 9 9 7 6 3 3 3 3 3 4 6 6 6 5 3 1 5 6 6 11 12 12 12 2 3 4 3 3 3 3 2 2 3
Wind_Direction
257 231 232 220 211 214 201 205 196 204 184 179 186 195 197 192 197 201 198 199 199 193 194 189 177 175 177 180 171 143 141 134 133 105 77 73 130 201 204 189 184 184 172
264 262 230 216 208 214 207 204 201 198 197 199 203 206 195 193 203 196 197 200 200 198 196 189 183 182 177 174 178 169 161 121 182 138 108 173 283 231 215 222 207 203 192
259 275 280 232 227 218 206 204 202 198 200 198 149 79 63 52 162 196 202 205 200 199 200 191 184 180 182 182 185 178 178 174 194 185 150 148 212 140 187 211 213 202 203
265 268 276 271 227 229 216 213 206 196 196 182 183 196 205 211 217 219 208 187 195 200 198 188 185 184 186 190 190 192 188 180 183 204 246 262 147 173 201 226 211 203 205
231 318 309 297 285 271 234 238 207 189 185 185 191 197 212 219 170 152 169 177 194 205 205 192 183 188 194 194 191 190 207 193 197 198 182 178 237 100 136 193 193 214 216
3 354 339 351 346 353 292 212 187 191 177 187 194 200 212 199 159 172 195 195 194 207 208 201 194 194 197 200 198 199 196 208 202 203 205 181 184 186 170 156 187 214 205
18 1 355 342 341 343 343 298 207 219 196 195 198 199 208 188 198 193 202 185 198 211 219 200 205 208 206 208 205 205 204 204 214 203 213 207 206 140 178 130 138 185 170
353 5 336 351 349 347 342 337 227 229 208 206 216 208 206 205 211 202 199 208 210 213 192 202 217 220 222 216 212 206 211 211 214 216 222 216 212 185 180 159 150 140 169
347 354 350 9 354 313 249 252 259 266 242 232 215 211 207 210 207 201 203 211 210 204 195 200 209 223 228 230 227 216 208 212 212 218 213 217 217 184 167 156 165 159 177
339 353 347 344 337 310 298 285 264 254 260 255 242 231 221 216 207 199 213 216 209 197 196 205 212 221 224 221 227 229 215 212 214 212 214 212 208 199 183 186 185 192 179
343 331 325 328 329 327 329 316 283 251 243 233 235 229 232 222 215 218 220 218 210 201 206 204 212 219 222 219 222 230 226 218 216 212 211 213 205 199 199 195 194 192 168
330 317 300 297 296 294 294 277 287 277 257 242 232 232 229 223 229 234 234 218 222 209 212 206 210 213 217 215 217 224 226 222 219 212 210 213 210 207 200 197 193 188 163
341 350 356 341 338 332 316 310 301 280 280 275 259 257 256 247 245 245 236 218 217 206 205 199 210 210 215 215 220 226 228 222 223 220 213 214 201 210 196 193 182 167 144
2 359 360 348 344 343 337 332 317 304 295 289 269 264 256 248 242 237 233 228 219 213 209 208 211 213 211 211 212 217 226 223 224 220 215 215 201 204 188 176 164 154 150
10 358 345 335 335 343 344 346 344 345 342 313 292 275 284 281 270 261 256 247 231 232 220 211 221 215 207 208 211 213 220 222 227 220 213 211 206 199 184 170 168 163 162
341 331 326 327 332 332 330 328 329 332 338 333 315 308 301 292 270 264 260 259 253 243 224 219 218 215 224 221 212 209 218 219 218 214 211 196 181 184 185 184 176 168 167
287 310 316 316 319 320 325 319 317 316 318 311 306 303 301 289 278 275 270 253 243 223 222 221 214 227 223 221 220 218 217 222 223 214 191 179 183 178 175 177 169 175 185
323 316 299 301 299 296 308 314 315 311 309 301 294 300 305 300 296 288 272 265 243 227 217 218 214 219 220 226 224 221 216 214 207 196 190 186 176 180 169 167 173 178 189
297 281 285 282 292 299 304 310 308 311 313 307 305 300 306 307 305 299 288 279 265 231 214 208 214 219 227 230 228 219 200 219 205 192 185 181 177 181 175 168 162 163 147
299 296 305 288 283 293 307 310 305 311 307 314 314 311 294 269 286 291 304 289 275 262 228 225 223 215 220 234 235 224 194 207 189 180 183 179 176 182 178 169 164 167 169
288 299 301 297 297 300 308 296 296 295 300 311 308 306 308 301 278 269 238 252 285 304 290 272 251 228 213 232 236 226 190 199 180 178 171 188 191 186 181 169 172 181 164
313 309 305 306 298 290 287 294 289 292 303 302 302 306 300 299 309 300 298 241 187 242 313 303 303 310 283 237 248 233 190 184 168 185 174 182 200 192 184 168 183 182 159
276 281 288 309 309 294 272 291 290 314 309 309 304 306 314 312 326 307 304 313 305 118 229 239 221 298 292 284 253 241 186 176 150 162 182 184 192 194 185 173 181 149 133
304 274 303 301 298 289 289 255 297 304 297 293 294 294 301 306 311 303 287 270 275 267 244 234 232 256 265 273 31 218 144 170 166 181 185 184 181 181 160 163 169 163 159
291 280 293 289 286 299 288 290 301 307 304 285 280 289 286 283 298 280 249 254 265 243 248 240 223 198 211 236 212 147 139 150 166 147 145 171 155 151 137 140 151 160 157
292 292 277 281 285 294 289 291 302 311 304 296 283 280 255 253 263 272 302 284 269 263 264 265 194 261 246 214 205 161 158 165 169 133 158 149 153 115 125 126 115 91 156